User: anonymous   Login
Location: Unspecified
(0.0000°N, 0.0000°E)
Time: 06:58:09
(UTC+00:00)
Language:

FAISAT-2V - Orbit

View from above orbital plane
View from above orbital plane
View from above satellite
View from above satellite

Ground track
Ground track

The orbit data is extracted from the following two-line orbital elements,

1 24954U 97052B   17202.76552897 +.00000055 +00000-0 +37082-4 0  9992
2 24954 082.9221 261.1953 0040988 099.2516 039.7723 13.79951831998383
Epoch (UTC): 21 July 2017 18:22:21
Eccentricity: 0.0040988
inclination: 82.9221°
perigee height: 934 km
apogee height: 994 km
right ascension of ascending node: 261.1953°
argument of perigee: 99.2516°
revolutions per day: 13.79951831
mean anomaly at epoch: 39.7723°
orbit number at epoch: 99838

The dashed part of the orbit path shows where the satellite is in the earth's shadow,  

DLR